sat.trackr.live / text

‹ back to catalog

SJ-11-03

NORAD 37730 · 2011-030A

PAYLOAD ACTIVE UNKNOWN

§ Identity

Operator
Country
PRC
Launch date
2011-07-06
Launch site
JSC
Launch vehicle
Mass (kg)
RCS (m²)
2.40

External: N2YO · Heavens-Above · Gunter

§ Orbital elements

Epoch: 2026-05-25T04:30:52.602048Z

Period
98.34 min
Inclination
97.9325°
Eccentricity
0.0009621
Mean motion
14.64308239 rev/d
Perigee alt
672.5 km
Apogee alt
686.1 km
Semi-major
7,057.4 km
B*
1.4570e-4
RAAN
110.0596°
Arg perigee
102.7105°
Mean anomaly
22.8484°
Rev number
79,374

§ Raw data

SJ-11-031 37730U 11030A   26145.18810882  .00000724  00000+0  14570-3 0  99912 37730  97.9325 110.0596 0009621 102.7105  22.8484 14.64308239793741

JSON: /api/v1/satellites/37730 · /tle

For live sub-satellite position, see the globe view (requires WebGL).

§ Visibility from observer

Set your observer location to see the next 7 days of passes ≥ 10°. The values pass through the URL so the page stays shareable.

No JS? Fill the form by hand. The geolocation button needs JavaScript.